Home > Weather > Arrecife > Past weeks

Flag for Spain Weather for the Past 2 Weeks in Arrecife, Canary Islands, Spain

Now
70 °F

Passing clouds.


Feels Like: 70 °F
Forecast: 62 / 70 °F
Wind: 18 mph from Northeast

Location: Lanzarote / Aeropuerto

Current Time: Feb 7, 2016 at 1:28:26 PM

Latest Report: Feb 7, 2016 at 1:00 PM


Visibility: N/A

Pressure: 30.39 "Hg

Humidity: 73%

Dew point: 61 °F

Location of ArrecifeLocation

Historic Weather in Arrecife — Graph

°F

Arrecife Temperature Yesterday

Maximum temperature yesterday: 75 °F (at 5:30 PM)
Minimum temperature yesterday: 61 °F (at 12:30 AM)
Average temperature yesterday: 68 °F

High & Low Weather Summary for the Past Weeks

 TemperatureHumidityPressure
High75 °F (Feb 6, 5:30 PM)94% (Jan 27, 6:30 AM)30.45 "Hg (Jan 27, 6:30 AM)
Low59 °F (Jan 25, 7:00 AM)32% (Jan 23, 10:30 PM)30.15 "Hg (Feb 5, 6:00 AM)
Average66 °F74%30.33 "Hg
* Reported Jan 23 12:00 Noon — Feb 7 12:00 Noon, Arrecife, Weather by CustomWeather, © 2016

Note: Actual official high and low records may vary slightly from our data, if they occured in-between our weather recording intervals... More about our weather records

Advertising

Arrecife Weather History for the Previous 24 Hours

 ConditionsComfort  
Time TempWeatherWind HumidityBarometerVisibility
12:00 PM
Sun, Feb 7
70 °FPassing clouds.18 mph73%30.42 "HgN/A
11:30 AM68 °FPassing clouds.18 mph78%30.42 "HgN/A
11:00 AM68 °FPassing clouds.16 mph78%30.42 "HgN/A
10:30 AM68 °FPassing clouds.17 mph78%30.39 "HgN/A
10:00 AM68 °FPassing clouds.20 mph78%30.39 "HgN/A
9:30 AM66 °FPassing clouds.18 mph78%30.36 "HgN/A
9:00 AM64 °FPassing clouds.16 mph83%30.36 "HgN/A
8:30 AM61 °FPassing clouds.12 mph88%30.36 "HgN/A
8:00 AM59 °FPassing clouds.14 mph88%30.36 "HgN/A
7:30 AM59 °FPassing clouds.9 mph88%30.33 "HgN/A
7:00 AM61 °FPassing clouds.12 mph88%30.33 "HgN/A
6:30 AM59 °FPassing clouds.9 mph94%30.33 "HgN/A
6:00 AM61 °FClear.9 mph88%30.33 "Hg10 mi
1:00 AM64 °FClear.12 mph83%30.30 "Hg10 mi
12:30 AM64 °FClear.15 mph78%30.30 "Hg10 mi
12:00 AM66 °FClear.15 mph78%30.30 "Hg10 mi
11:30 PM
Sat, Feb 6
66 °FClear.17 mph78%30.33 "Hg10 mi
11:00 PM66 °FPassing clouds.14 mph83%30.30 "HgN/A
10:30 PM66 °FPassing clouds.14 mph83%30.30 "HgN/A
10:00 PM66 °FClear.16 mph83%30.30 "Hg10 mi
9:00 PM66 °FPassing clouds.20 mph78%30.27 "HgN/A
8:30 PM70 °FPassing clouds.15 mph64%30.27 "HgN/A
8:00 PM68 °FPassing clouds.15 mph64%30.24 "HgN/A
7:30 PM68 °FPassing clouds.15 mph78%30.24 "HgN/A
7:00 PM70 °FClear.14 mph73%30.24 "Hg10 mi
6:30 PM72 °FSunny.10 mph69%30.21 "Hg10 mi
6:00 PM73 °FPassing clouds.9 mph61%30.21 "HgN/A
5:30 PM75 °FSunny.12 mph57%30.21 "Hg10 mi
5:00 PM70 °FSunny.14 mph83%30.21 "Hg10 mi
4:30 PM70 °FSunny.12 mph83%30.21 "Hg10 mi
4:00 PM70 °FSunny.9 mph83%30.21 "Hg10 mi
3:30 PM72 °FPassing clouds.8 mph78%30.21 "HgN/A
3:00 PM72 °FSunny.6 mph73%30.21 "Hg10 mi
2:30 PM73 °FPassing clouds.3 mph61%30.24 "HgN/A
2:00 PM70 °FPassing clouds.3 mph69%30.24 "HgN/A
1:30 PM72 °FSunny.3 mph65%30.24 "Hg10 mi
1:00 PM72 °FSunny.6 mph73%30.27 "Hg10 mi
Weather by CustomWeather, © 2016

See weather overviewHow to use our weather pages